VOE1704 LICC-LIRQ

Flight info

Callsign VOE1704
Flight time 1h 22m
Altitude 32000
Route BUDIN DCT DIRED DCT DELER DCT TIBER DCT RITEB DCT AMTEL/N0343F180 L995 IBRID
Aircraft A320/M-SDE3FGHIRWY/LB1

Departure

Time 2026-05-04 06:40
Airport Catania-Fontanarossa Airport (LICC)

Arrival

Time 2026-05-04 08:02
Airport Florence Airport, Peretola (LIRQ)
Time Latitude Longitude Altitude Speed Heading
2026-05-04 06:15 37.46849 15.05838 54 ft 0 kts 354°
2026-05-04 06:27 37.46861 15.05856 54 ft 2 kts 107°
2026-05-04 06:28 37.46845 15.05856 54 ft 3 kts 213°
2026-05-04 06:28 37.46822 15.05843 54 ft 4 kts 182°
2026-05-04 06:28 37.46794 15.05846 54 ft 4 kts 174°
2026-05-04 06:28 37.46779 15.05880 54 ft 6 kts 86°
2026-05-04 06:29 37.46783 15.05946 54 ft 9 kts 86°
2026-05-04 06:29 37.46790 15.06035 54 ft 12 kts 84°
2026-05-04 06:29 37.46800 15.06144 54 ft 13 kts 84°
2026-05-04 06:29 37.46809 15.06253 54 ft 12 kts 84°
2026-05-04 06:30 37.46818 15.06361 54 ft 12 kts 84°
2026-05-04 06:30 37.46827 15.06468 54 ft 12 kts 84°
2026-05-04 06:30 37.46836 15.06573 54 ft 12 kts 84°
2026-05-04 06:30 37.46845 15.06664 54 ft 9 kts 83°
2026-05-04 06:31 37.46851 15.06736 54 ft 8 kts 85°
2026-05-04 06:31 37.46856 15.06807 54 ft 8 kts 85°
2026-05-04 06:31 37.46862 15.06875 54 ft 8 kts 83°
2026-05-04 06:31 37.46868 15.06941 54 ft 8 kts 83°
2026-05-04 06:32 37.46873 15.07007 54 ft 7 kts 85°
2026-05-04 06:33 37.46922 15.07590 54 ft 9 kts 83°
2026-05-04 06:34 37.46928 15.07669 54 ft 9 kts 84°
2026-05-04 06:34 37.46935 15.07746 54 ft 9 kts 83°
2026-05-04 06:34 37.46942 15.07822 54 ft 9 kts 83°
2026-05-04 06:34 37.46948 15.07903 54 ft 9 kts 84°
2026-05-04 06:35 37.46955 15.07982 54 ft 9 kts 84°
2026-05-04 06:36 37.46893 15.08085 54 ft 5 kts 174°
2026-05-04 06:37 37.46836 15.08084 54 ft 10 kts 194°
2026-05-04 06:37 37.46794 15.08041 54 ft 4 kts 248°
2026-05-04 06:37 37.46792 15.08025 54 ft 0 kts 264°
2026-05-04 06:38 37.46772 15.07807 54 ft 64 kts 263°
2026-05-04 06:38 37.46703 15.06924 55 ft 135 kts 259°
2026-05-04 06:40 37.45773 14.95805 4055 ft 239 kts 263°
2026-05-04 06:40 37.45589 14.93703 4991 ft 244 kts 263°
2026-05-04 06:40 37.45406 14.91595 5911 ft 248 kts 263°
2026-05-04 06:40 37.45219 14.89420 6836 ft 252 kts 263°
2026-05-04 06:41 37.45027 14.87201 7756 ft 256 kts 264°
2026-05-04 06:41 37.44831 14.84957 8638 ft 260 kts 264°
2026-05-04 06:41 37.44632 14.82676 9494 ft 263 kts 264°
2026-05-04 06:41 37.44440 14.80377 10352 ft 265 kts 267°
2026-05-04 06:42 37.44597 14.78080 11178 ft 265 kts 289°
2026-05-04 06:42 37.45573 14.76143 12004 ft 264 kts 319°
2026-05-04 06:42 37.47197 14.75098 12830 ft 267 kts 347°
2026-05-04 06:44 37.61084 14.73403 17132 ft 337 kts 352°
2026-05-04 06:44 37.63489 14.73078 17395 ft 357 kts 352°
2026-05-04 06:44 37.65994 14.72747 17909 ft 364 kts 352°
2026-05-04 06:45 37.68525 14.72413 18565 ft 367 kts 352°
2026-05-04 06:45 37.71072 14.72070 19166 ft 369 kts 352°
2026-05-04 06:45 37.73642 14.71721 19629 ft 372 kts 352°
2026-05-04 06:45 37.76234 14.71368 20102 ft 375 kts 351°
2026-05-04 06:46 37.78835 14.71011 20573 ft 377 kts 351°
2026-05-04 06:46 37.81455 14.70653 21032 ft 379 kts 351°
2026-05-04 06:46 37.84090 14.70293 21479 ft 381 kts 351°
2026-05-04 06:46 37.86737 14.69932 21906 ft 384 kts 351°
2026-05-04 06:48 38.04723 14.77081 24662 ft 415 kts 26°
2026-05-04 06:48 38.07233 14.78906 25010 ft 416 kts 25°
2026-05-04 06:49 38.09772 14.80690 25371 ft 417 kts 24°
2026-05-04 06:50 38.27768 14.93598 27595 ft 430 kts 25°
2026-05-04 06:51 38.30345 14.95452 27940 ft 430 kts 25°
2026-05-04 06:51 38.32947 14.97333 28343 ft 428 kts 25°
2026-05-04 06:51 38.35532 14.99205 28759 ft 427 kts 25°
2026-05-04 06:51 38.38110 15.01073 29121 ft 426 kts 25°
2026-05-04 06:52 38.40682 15.02937 29490 ft 425 kts 24°
2026-05-04 06:52 38.43269 15.04710 29881 ft 419 kts 19°
2026-05-04 06:52 38.46002 15.05923 30217 ft 412 kts
2026-05-04 06:52 38.48819 15.06348 30517 ft 405 kts 356°
2026-05-04 06:53 38.51588 15.05942 30824 ft 399 kts 343°
2026-05-04 06:53 38.54208 15.04826 31130 ft 396 kts 336°
2026-05-04 06:53 38.56743 15.03465 31446 ft 395 kts 334°
2026-05-04 06:53 38.59266 15.02077 31756 ft 394 kts 334°
2026-05-04 06:54 38.61797 15.00723 32020 ft 395 kts 335°
2026-05-04 06:54 38.64347 14.99413 32234 ft 396 kts 336°
2026-05-04 06:54 38.69473 14.96834 32222 ft 395 kts 336°
2026-05-04 06:55 38.74576 14.94215 32219 ft 395 kts 335°
2026-05-04 06:55 38.79649 14.91592 32219 ft 395 kts 335°
2026-05-04 06:57 39.00005 14.81073 32204 ft 394 kts 336°
2026-05-04 06:58 39.05089 14.78438 32190 ft 394 kts 336°
2026-05-04 06:58 39.10169 14.75800 32184 ft 394 kts 336°
2026-05-04 06:59 39.15249 14.73158 32171 ft 394 kts 335°
2026-05-04 06:59 39.20327 14.70508 32170 ft 394 kts 335°
2026-05-04 07:01 39.40629 14.59885 32159 ft 394 kts 335°
2026-05-04 07:02 39.45719 14.57213 32159 ft 395 kts 335°
2026-05-04 07:02 39.50816 14.54532 32174 ft 395 kts 335°
2026-05-04 07:03 39.55910 14.51844 32187 ft 395 kts 335°
2026-05-04 07:03 39.60928 14.48957 32195 ft 394 kts 333°
2026-05-04 07:04 39.65922 14.46012 32201 ft 394 kts 333°
2026-05-04 07:04 39.70927 14.43073 32181 ft 395 kts 333°
2026-05-04 07:05 39.75938 14.40129 32196 ft 395 kts 333°
2026-05-04 07:05 39.80911 14.37201 32192 ft 395 kts 333°
2026-05-04 07:06 39.88425 14.32772 32193 ft 395 kts 333°
2026-05-04 07:07 39.93437 14.29803 32173 ft 396 kts 333°
2026-05-04 07:09 40.13474 14.17911 32207 ft 396 kts 333°
2026-05-04 07:09 40.18512 14.14880 32210 ft 395 kts 331°
2026-05-04 07:10 40.23309 14.11469 32215 ft 395 kts 329°
2026-05-04 07:12 40.42462 13.97487 32223 ft 393 kts 329°
2026-05-04 07:12 40.47249 13.93988 32180 ft 393 kts 329°
2026-05-04 07:13 40.52032 13.90492 32173 ft 393 kts 329°
2026-05-04 07:13 40.56811 13.86983 32185 ft 394 kts 329°
2026-05-04 07:14 40.68826 13.78146 32179 ft 397 kts 329°
2026-05-04 07:15 40.73657 13.74584 32212 ft 398 kts 329°
2026-05-04 07:15 40.78491 13.71014 32242 ft 398 kts 329°
2026-05-04 07:16 40.83322 13.67438 32265 ft 398 kts 329°
2026-05-04 07:16 40.88125 13.63880 32248 ft 399 kts 329°
2026-05-04 07:17 40.92965 13.60289 32235 ft 399 kts 329°
2026-05-04 07:17 40.97804 13.56688 32229 ft 399 kts 329°
2026-05-04 07:18 41.01856 13.53668 32224 ft 399 kts 329°
2026-05-04 07:18 41.06661 13.50081 32193 ft 400 kts 329°
2026-05-04 07:19 41.11510 13.46457 32200 ft 399 kts 329°
2026-05-04 07:19 41.16347 13.42840 32208 ft 399 kts 329°
2026-05-04 07:20 41.21183 13.39212 32202 ft 399 kts 329°
2026-05-04 07:20 41.26020 13.35576 32202 ft 399 kts 329°
2026-05-04 07:22 41.45399 13.20951 32213 ft 400 kts 328°
2026-05-04 07:23 41.50237 13.17286 32242 ft 400 kts 328°
2026-05-04 07:23 41.55079 13.13612 32226 ft 400 kts 328°
2026-05-04 07:24 41.59914 13.09932 32217 ft 400 kts 328°
2026-05-04 07:24 41.64764 13.06240 32180 ft 401 kts 328°
2026-05-04 07:26 41.84163 12.91399 32179 ft 403 kts 328°
2026-05-04 07:27 41.89066 12.87629 32198 ft 403 kts 328°
2026-05-04 07:27 41.93922 12.83894 32175 ft 405 kts 328°
2026-05-04 07:28 41.98814 12.80123 32191 ft 405 kts 328°
2026-05-04 07:28 42.03703 12.76343 32205 ft 405 kts 328°
2026-05-04 07:29 42.08594 12.72561 32246 ft 405 kts 328°
2026-05-04 07:29 42.13480 12.68769 32254 ft 405 kts 328°
2026-05-04 07:30 42.18366 12.64970 32258 ft 406 kts 328°
2026-05-04 07:30 42.23264 12.61165 32252 ft 406 kts 327°
2026-05-04 07:31 42.27978 12.56995 32243 ft 405 kts 322°
2026-05-04 07:33 42.43979 12.41520 32033 ft 393 kts 322°
2026-05-04 07:33 42.46176 12.39396 31778 ft 383 kts 322°
2026-05-04 07:33 42.48338 12.37300 31538 ft 382 kts 322°
2026-05-04 07:33 42.50467 12.35234 31292 ft 380 kts 322°
2026-05-04 07:34 42.52609 12.33154 31045 ft 378 kts 322°
2026-05-04 07:34 42.54746 12.31081 30797 ft 377 kts 322°
2026-05-04 07:34 42.56874 12.29014 30539 ft 375 kts 322°
2026-05-04 07:34 42.59015 12.26933 30175 ft 372 kts 322°
2026-05-04 07:35 42.61114 12.24893 29731 ft 369 kts 322°
2026-05-04 07:35 42.63167 12.22895 29302 ft 367 kts 322°
2026-05-04 07:35 42.65234 12.20881 28870 ft 364 kts 322°
2026-05-04 07:35 42.67285 12.18881 28436 ft 362 kts 322°
2026-05-04 07:36 42.69318 12.16892 28008 ft 359 kts 322°
2026-05-04 07:36 42.71302 12.14860 27579 ft 356 kts 320°
2026-05-04 07:38 42.84716 12.00684 24573 ft 342 kts 321°
2026-05-04 07:38 42.86589 11.98700 24166 ft 340 kts 320°
2026-05-04 07:38 42.88452 11.96724 23764 ft 338 kts 320°
2026-05-04 07:38 42.90301 11.94758 23364 ft 336 kts 320°
2026-05-04 07:39 42.92145 11.92803 22966 ft 335 kts 320°
2026-05-04 07:39 42.93977 11.90860 22590 ft 333 kts 320°
2026-05-04 07:39 42.95799 11.88923 22212 ft 331 kts 320°
2026-05-04 07:39 42.97614 11.86991 21839 ft 329 kts 320°
2026-05-04 07:40 42.99415 11.85071 21467 ft 328 kts 320°
2026-05-04 07:40 43.01213 11.83153 21095 ft 326 kts 320°
2026-05-04 07:40 43.03001 11.81247 20745 ft 325 kts 320°
2026-05-04 07:40 43.04777 11.79352 20400 ft 323 kts 320°
2026-05-04 07:41 43.06540 11.77468 20053 ft 321 kts 320°
2026-05-04 07:41 43.08300 11.75587 19695 ft 321 kts 320°
2026-05-04 07:41 43.10054 11.73709 19333 ft 320 kts 320°
2026-05-04 07:41 43.11806 11.71833 18984 ft 319 kts 320°
2026-05-04 07:42 43.13550 11.69966 18658 ft 317 kts 320°
2026-05-04 07:42 43.15285 11.68105 18335 ft 316 kts 320°
2026-05-04 07:42 43.17012 11.66250 18010 ft 315 kts 320°
2026-05-04 07:42 43.18733 11.64402 17684 ft 314 kts 320°
2026-05-04 07:43 43.20455 11.62553 17350 ft 313 kts 320°
2026-05-04 07:43 43.22197 11.60764 17023 ft 314 kts 326°
2026-05-04 07:43 43.24077 11.59251 16721 ft 313 kts 329°
2026-05-04 07:43 43.25995 11.57845 16417 ft 312 kts 331°
2026-05-04 07:44 43.27915 11.56476 16113 ft 311 kts 331°
2026-05-04 07:44 43.29833 11.55095 15807 ft 311 kts 330°
2026-05-04 07:44 43.31737 11.53696 15504 ft 310 kts 330°
2026-05-04 07:44 43.33631 11.52287 15190 ft 310 kts 330°
2026-05-04 07:45 43.35511 11.50883 14842 ft 312 kts 330°
2026-05-04 07:45 43.37444 11.49444 14498 ft 312 kts 330°
2026-05-04 07:45 43.39358 11.48021 14158 ft 313 kts 330°
2026-05-04 07:45 43.41274 11.46600 13817 ft 313 kts 330°
2026-05-04 07:46 43.43190 11.45176 13474 ft 313 kts 330°
2026-05-04 07:46 43.45106 11.43747 13136 ft 313 kts 330°
2026-05-04 07:46 43.47016 11.42306 12796 ft 313 kts 328°
2026-05-04 07:46 43.48692 11.40487 12433 ft 311 kts 313°
2026-05-04 07:47 43.50159 11.38303 12061 ft 309 kts 309°
2026-05-04 07:47 43.51537 11.36066 11696 ft 304 kts 308°
2026-05-04 07:47 43.52883 11.33854 11333 ft 299 kts 308°
2026-05-04 07:49 43.62568 11.18654 7621 ft 289 kts 307°
2026-05-04 07:49 43.63460 11.16226 7063 ft 281 kts 279°
2026-05-04 07:49 43.63375 11.13647 6793 ft 262 kts 249°
2026-05-04 07:50 43.62405 11.11643 6659 ft 245 kts 220°
2026-05-04 07:50 43.61093 11.10247 6547 ft 232 kts 216°
2026-05-04 07:50 43.59884 11.08845 6418 ft 224 kts 224°
2026-05-04 07:50 43.58844 11.07256 6296 ft 220 kts 228°
2026-05-04 07:51 43.57891 11.05682 6174 ft 209 kts 228°
2026-05-04 07:51 43.56949 11.04188 6052 ft 205 kts 226°
2026-05-04 07:51 43.56013 11.02778 5961 ft 193 kts 226°
2026-05-04 07:51 43.55140 11.01453 5865 ft 180 kts 226°
2026-05-04 07:52 43.54348 11.00228 5772 ft 161 kts 226°
2026-05-04 07:52 43.53632 10.99118 5512 ft 151 kts 226°
2026-05-04 07:52 43.52937 10.98046 5122 ft 149 kts 227°
2026-05-04 07:52 43.52538 10.96741 4712 ft 152 kts 264°
2026-05-04 07:53 43.52866 10.95400 4342 ft 153 kts 305°
2026-05-04 07:54 43.60095 10.96287 2989 ft 155 kts 11°
2026-05-04 07:55 43.61149 10.96572 2988 ft 154 kts 11°
2026-05-04 07:55 43.62206 10.96856 2988 ft 154 kts 11°
2026-05-04 07:55 43.63263 10.97141 2988 ft 154 kts 11°
2026-05-04 07:55 43.64317 10.97425 2990 ft 154 kts 11°
2026-05-04 07:56 43.65373 10.97710 2992 ft 154 kts 11°
2026-05-04 07:56 43.66402 10.98107 2973 ft 154 kts 30°
2026-05-04 07:56 43.67134 10.99164 3001 ft 153 kts 53°
2026-05-04 07:56 43.67593 10.99902 3002 ft 152 kts 50°
2026-05-04 07:57 43.68320 11.00969 3003 ft 153 kts 48°
2026-05-04 07:57 43.69039 11.02045 3001 ft 152 kts 50°
2026-05-04 07:57 43.69741 11.03145 3001 ft 153 kts 51°
2026-05-04 07:57 43.70446 11.04241 2988 ft 153 kts 50°
2026-05-04 07:58 43.71159 11.05328 2861 ft 152 kts 49°
2026-05-04 07:58 43.71861 11.06409 2685 ft 151 kts 50°
2026-05-04 07:58 43.72558 11.07486 2492 ft 150 kts 49°
2026-05-04 07:58 43.73252 11.08551 2297 ft 149 kts 49°
2026-05-04 07:59 43.73939 11.09609 2102 ft 147 kts 49°
2026-05-04 07:59 43.74625 11.10667 1909 ft 146 kts 46°
2026-05-04 07:59 43.75289 11.11692 1714 ft 142 kts 46°
2026-05-04 07:59 43.75963 11.12731 1522 ft 145 kts 46°
2026-05-04 08:00 43.76626 11.13753 1325 ft 141 kts 46°
2026-05-04 08:00 43.77270 11.14743 1137 ft 141 kts 46°
2026-05-04 08:00 43.77931 11.15762 975 ft 143 kts 46°
2026-05-04 08:02 43.81423 11.21160 158 ft 12 kts 49°
2026-05-04 08:02 43.81471 11.21257 158 ft 12 kts 75°
2026-05-04 08:02 43.81505 11.21334 158 ft 6 kts 44°
2026-05-04 08:03 43.81528 11.21323 158 ft 4 kts 270°
2026-05-04 08:03 43.81510 11.21289 158 ft 6 kts 228°
2026-05-04 08:03 43.81470 11.21227 158 ft 12 kts 228°
2026-05-04 08:03 43.81405 11.21126 158 ft 16 kts 228°
2026-05-04 08:04 43.81322 11.20997 158 ft 20 kts 225°
2026-05-04 08:04 43.81222 11.20840 158 ft 23 kts 229°
2026-05-04 08:04 43.81109 11.20668 158 ft 24 kts 229°
2026-05-04 08:04 43.80994 11.20491 158 ft 25 kts 227°
2026-05-04 08:05 43.80877 11.20311 158 ft 25 kts 228°
2026-05-04 08:05 43.80757 11.20133 158 ft 26 kts 227°
2026-05-04 08:05 43.80649 11.20022 158 ft 16 kts 190°
2026-05-04 08:05 43.80542 11.19987 158 ft 15 kts 193°
2026-05-04 08:06 43.80469 11.19962 158 ft 9 kts 193°
2026-05-04 08:06 43.80411 11.19936 158 ft 8 kts 217°
2026-05-04 08:06 43.80373 11.19902 158 ft 5 kts 202°
2026-05-04 08:06 43.80345 11.19886 158 ft 2 kts 201°